Theta_e
323 316 310 314 303 301 297 303 309 309 307 311 313 311 309 310 309 302 319 319 319 320 323 325 329 330 330 329 328 328 328 328 327 327 326 326 325 325 325 324 323 323 325 326 327 327 326 325 325
320 316 314 309 300 294 296 305 306 308 311 313 312 311 308 308 316 317 317 318 318 319 322 324 328 328 328 327 327 326 325 325 325 325 324 324 323 323 322 322 321 322 323 324 325 325 324 323 323
312 314 307 302 296 295 297 303 305 306 312 310 308 311 308 311 316 317 319 318 318 317 320 322 325 325 325 324 325 324 324 324 323 323 322 322 321 320 320 320 319 320 321 322 323 322 322 321 321
306 307 303 294 292 293 299 303 306 306 307 311 309 305 313 317 317 320 321 321 317 316 318 318 320 322 322 321 322 323 322 322 321 321 321 321 319 319 319 319 319 320 320 321 321 321 320 320 319
305 302 293 290 290 293 295 298 304 304 305 306 309 305 307 317 320 320 318 318 316 316 315 313 319 320 320 319 318 319 319 319 319 319 320 319 319 318 318 318 317 317 318 319 319 319 319 319 319
303 301 291 288 289 293 294 296 301 303 305 305 307 306 309 318 317 318 317 317 315 310 308 309 312 314 316 316 316 316 316 316 317 318 316 317 316 317 316 315 316 316 317 317 317 317 317 317 317
300 296 291 289 291 292 295 298 298 299 303 303 308 305 310 314 317 317 316 314 309 306 304 303 303 305 308 314 315 314 315 315 315 311 310 309 309 309 308 308 310 311 310 311 313 314 313 313 313
299 297 291 290 290 290 293 296 301 302 302 309 308 304 302 314 316 316 313 308 303 301 300 299 299 299 299 303 310 313 313 310 306 304 304 303 301 302 301 302 304 306 306 307 307 308 307 306 305
301 293 289 289 291 290 293 295 301 303 303 304 307 306 311 315 315 311 307 304 300 299 296 295 296 296 296 300 301 303 306 304 301 299 300 297 293 293 292 297 300 302 302 303 303 303 302 300 298
297 291 291 290 288 289 291 291 294 297 298 300 302 309 313 315 311 308 304 302 298 295 293 292 293 293 294 298 295 294 296 295 293 292 291 292 290 291 292 292 296 297 298 298 299 299 297 293 289
292 291 291 291 292 291 291 290 291 289 289 298 301 306 310 312 309 308 305 299 297 294 292 292 291 291 291 291 291 290 291 289 291 290 289 289 289 287 287 286 286 287 291 288 289 288 288 287 288
290 293 293 293 293 291 289 290 289 290 291 300 303 309 308 308 308 305 298 296 294 292 290 290 289 289 289 289 289 289 289 289 289 288 289 287 286 285 285 285 285 285 287 286 286 286 287 286 287
290 290 292 292 292 290 291 288 287 288 290 300 304 307 305 304 302 299 298 296 293 291 289 288 288 288 288 288 287 288 287 287 288 288 288 287 285 285 285 285 285 284 285 285 285 285 286 285 286
291 291 290 291 291 290 288 287 287 288 289 298 302 303 303 302 298 297 296 293 291 290 289 288 288 288 288 287 286 287 287 287 287 287 287 288 286 285 285 284 284 284 284 285 285 285 284 285 285
292 288 290 289 291 290 288 286 286 289 294 296 299 300 301 301 298 296 296 292 290 289 289 288 287 288 286 286 286 286 287 287 286 286 287 287 287 285 285 284 284 283 284 284 284 284 284 283 284
290 290 285 289 290 290 288 283 288 289 294 294 296 299 299 299 297 295 293 291 289 288 287 288 289 287 286 285 285 286 286 285 285 285 286 286 287 286 284 283 283 284 284 284 283 283 282 282 282
284 278 282 284 288 286 285 283 287 289 292 291 292 294 297 297 295 293 291 289 287 286 286 286 286 285 285 285 285 284 284 284 284 284 284 285 286 286 284 283 283 284 283 283 282 283 281 280 280
278 279 281 281 284 283 282 284 286 286 287 287 287 288 291 296 296 293 290 288 286 285 285 285 285 285 284 284 283 283 283 283 283 284 284 285 285 285 284 283 283 283 282 282 282 280 281 280 280
281 279 279 282 283 281 279 281 285 287 284 283 284 285 288 292 296 291 289 287 285 285 285 285 284 283 283 282 281 281 280 282 282 284 285 284 284 284 282 282 281 281 280 280 280 280 279 279 280
282 280 279 281 283 281 281 282 284 285 283 283 284 284 287 291 291 289 287 286 285 285 285 284 284 283 283 283 282 281 281 281 281 283 282 283 283 283 282 280 280 280 279 278 279 278 278 278 279
279 279 278 278 280 281 280 281 284 285 284 284 285 285 288 290 290 288 287 285 284 284 283 283 283 284 283 283 283 282 281 280 279 280 280 281 281 281 280 280 278 278 278 277 277 276 276 275 276
278 281 280 280 277 274 279 277 281 282 282 284 284 284 283 286 290 289 287 286 284 283 282 283 284 284 283 282 280 278 277 276 278 278 279 279 280 279 279 278 278 277 277 276 276 277 275 274 273
279 281 280 279 276 276 277 273 281 282 282 282 281 281 282 283 287 288 287 286 284 282 281 282 282 281 281 280 279 277 276 276 277 277 276 277 277 277 277 277 276 275 275 274 274 274 274 275 274
282 281 280 278 275 273 270 273 281 281 282 281 281 281 282 282 283 283 283 283 281 281 280 279 279 279 279 278 277 276 275 275 275 275 274 274 275 275 275 275 274 273 273 273 272 272 272 272 272
280 279 273 275 273 276 265 272 282 283 282 282 282 281 280 281 281 280 280 280 279 277 277 279 278 277 277 276 276 276 275 275 274 273 273 272 272 272 272 272 272 271 271 271 271 270 270 270 270
279 277 274 269 271 274 267 272 282 281 281 281 282 281 281 280 280 279 279 278 276 277 277 277 277 276 276 275 275 275 275 274 273 273 272 272 271 271 271 270 270 270 270 270 269 269 269 269 268
279 274 277 268 260 267 275 279 285 281 279 280 281 281 281 280 279 278 278 276 276 275 275 275 275 275 275 275 274 274 274 273 272 272 271 271 270 270 270 269 269 269 269 268 268 268 267 267 268
280 280 275 273 269 268 274 271 280 280 278 279 280 280 281 279 278 277 276 275 275 275 275 275 275 274 274 274 273 273 272 272 271 271 270 269 269 268 268 268 268 267 267 267 268 266 267 267 268
275 274 275 276 275 269 266 276 282 282 279 279 278 281 278 275 277 276 275 275 275 275 274 274 273 273 273 273 272 272 271 271 270 269 269 268 268 267 267 267 267 266 266 267 266 266 267 267 267
279 279 278 275 273 271 271 275 280 277 272 275 278 280 278 273 275 274 275 275 275 274 273 273 273 272 272 272 271 270 270 269 269 268 267 268 266 267 266 266 266 266 266 266 265 265 266 266 267
Wind_Speed
9 8 1 4 5 6 2 3 2 4 3 4 3 5 7 4 3 2 5 3 1 3 6 7 14 15 15 15 14 13 13 12 12 12 11 11 11 11 12 12 12 12 12 12 13 12 13 13 14
5 5 4 3 6 4 2 4 5 2 6 8 6 4 4 3 3 5 4 2 2 3 5 7 12 14 13 13 13 12 12 11 10 10 10 10 11 11 12 12 12 13 13 13 13 14 13 14 14
3 1 4 5 3 4 4 1 4 0 7 2 4 6 2 5 3 3 3 4 3 4 4 6 12 12 11 11 11 11 11 11 11 11 12 11 11 11 12 12 12 13 14 14 15 15 14 14 14
3 4 6 6 5 2 4 4 4 3 4 5 4 6 1 3 3 4 5 3 3 4 3 7 10 10 10 11 11 11 11 11 11 11 12 11 11 10 11 12 12 13 14 14 14 15 15 16 16
4 3 5 4 3 0 0 3 5 2 3 1 3 5 3 2 5 6 5 4 4 4 4 6 11 8 10 10 11 10 10 10 10 10 13 13 11 11 11 14 13 15 14 15 15 16 16 16 16
4 4 5 3 3 3 1 3 2 1 3 2 5 6 3 4 7 6 5 4 5 6 5 6 9 12 11 8 9 9 8 8 10 13 14 14 15 14 14 15 14 15 15 16 15 16 15 15 17
7 4 5 5 5 1 3 1 3 1 2 1 6 4 2 5 5 6 6 5 6 6 6 5 6 8 11 7 11 6 8 7 11 12 13 14 15 15 16 16 16 17 17 17 18 18 19 19 20
5 5 5 2 6 4 3 2 3 2 3 2 2 4 4 7 8 5 5 6 6 6 6 6 6 6 5 4 11 10 11 11 11 12 13 13 14 15 16 16 16 17 17 17 17 17 19 20 20
1 6 2 5 7 3 0 1 1 2 3 2 2 2 1 8 9 6 5 4 5 5 5 5 5 5 6 4 6 8 9 10 11 10 13 9 5 7 9 15 17 18 18 18 18 19 20 21 19
6 4 7 3 1 1 1 0 1 1 1 2 2 2 4 9 7 8 5 6 4 4 2 4 5 6 6 5 6 6 5 4 4 5 6 4 5 6 9 12 17 18 18 19 20 21 20 15 7
3 3 3 1 1 3 4 3 3 1 4 7 9 10 7 7 8 6 5 6 6 4 3 3 4 4 4 3 3 2 2 3 3 5 4 4 4 3 3 3 4 4 12 6 9 9 7 10 7
5 3 2 2 4 3 2 6 5 6 7 4 7 12 9 9 8 7 8 8 7 5 4 4 5 4 4 3 3 3 3 3 3 3 3 3 3 4 4 3 4 4 5 7 8 6 8 9 9
4 2 4 2 3 2 3 5 6 9 7 4 5 10 11 8 8 6 6 6 7 6 5 3 3 4 4 4 3 3 3 3 3 3 4 3 3 4 4 4 4 4 4 6 8 8 9 10 11
3 3 2 0 3 2 3 4 3 5 5 9 8 10 9 9 10 6 7 7 6 6 5 4 4 3 4 3 4 3 3 3 4 4 4 3 2 3 3 4 4 4 3 6 7 7 9 9 9
4 1 1 2 4 3 3 5 8 8 5 9 9 8 9 9 8 9 8 7 8 5 6 4 5 3 3 2 3 3 3 4 3 4 5 5 5 4 4 4 4 4 4 7 7 8 8 8 9
4 5 5 2 7 1 2 11 6 3 9 11 9 8 8 9 10 9 9 8 7 7 6 4 3 4 3 3 3 4 4 3 4 4 4 6 5 5 5 4 4 5 4 6 5 7 8 8 9
9 1 4 7 4 4 1 12 7 3 8 10 9 9 8 7 7 5 6 8 8 8 7 5 5 3 3 3 4 3 5 4 4 4 4 6 6 7 5 5 6 8 6 7 7 8 6 9 9
3 3 5 6 4 3 8 24 14 9 9 11 9 9 8 8 12 8 9 7 6 6 5 5 5 3 2 2 2 2 2 3 4 5 4 6 6 7 7 7 8 6 8 7 7 8 9 8 9
3 3 5 6 1 8 4 14 19 13 4 7 8 8 7 8 6 8 6 7 6 5 5 6 6 3 2 2 1 2 2 3 3 3 4 7 5 9 10 7 9 8 7 9 10 10 11 9 9
4 3 5 8 2 3 8 20 8 3 2 2 4 6 6 3 4 6 7 7 7 5 5 5 5 3 2 1 1 1 2 2 3 3 6 6 8 9 10 9 8 10 9 11 10 11 10 10 8
1 0 3 6 10 2 9 8 4 1 1 3 5 2 5 4 7 6 8 7 5 4 3 5 4 4 5 5 3 3 2 2 2 6 6 7 10 9 10 10 10 10 9 8 9 10 13 12 11
4 1 2 5 6 3 6 7 6 2 1 4 6 6 5 4 4 5 6 4 4 2 5 5 5 6 6 7 5 5 3 5 4 6 6 7 7 9 11 10 11 10 8 10 9 10 12 13 13
4 2 4 1 3 3 5 4 10 2 3 2 2 3 5 5 4 3 4 4 5 6 6 6 7 7 6 7 6 4 5 3 4 6 9 8 9 9 10 10 11 10 9 11 13 13 12 10 11
3 1 2 3 3 4 2 4 9 4 3 3 3 1 4 5 6 8 7 7 7 6 6 6 6 6 6 5 5 6 6 8 8 8 8 7 8 7 10 11 10 12 11 11 12 14 14 13 13
5 6 6 8 7 6 1 2 14 5 4 4 8 5 3 5 6 6 7 6 6 6 6 5 6 5 5 6 6 7 8 8 9 9 8 11 8 8 9 12 11 10 12 13 12 12 12 13 12
4 4 6 5 3 7 1 8 9 1 2 2 4 6 4 4 4 5 5 5 5 5 5 5 5 5 5 5 7 7 9 6 6 8 8 7 8 8 11 11 12 12 12 12 12 10 9 12 11
3 4 2 6 1 5 5 10 10 2 3 4 6 6 6 4 3 4 4 5 5 5 4 4 4 4 6 6 7 7 7 9 8 10 8 7 9 10 12 12 12 12 12 13 12 9 12 12 11
3 1 5 4 5 7 8 8 9 7 9 7 8 10 8 6 5 4 3 5 4 4 3 4 4 4 5 6 7 7 8 8 8 9 9 11 10 11 11 12 12 12 12 13 13 11 12 12 10
3 2 3 3 4 5 4 11 9 9 7 12 10 10 8 5 4 4 4 3 3 3 4 4 5 6 7 7 9 9 8 9 9 10 9 10 11 11 11 12 13 13 13 12 12 13 14 13 14
1 4 4 6 7 4 2 16 3 5 5 7 10 8 3 3 4 4 4 3 1 2 3 4 5 5 6 6 8 9 9 10 10 9 11 10 11 11 12 11 13 13 13 13 13 14 14 15 15
Wind_Direction
322 308 268 37 63 64 43 342 17 144 73 335 0 93 104 36 32 160 116 78 72 355 0 23 47 50 47 44 42 38 35 32 27 24 19 14 9 6 4 3 2 355 352 349 347 348 348 347 345
315 329 37 86 81 68 321 348 88 30 134 143 94 104 46 93 77 111 147 145 74 31 17 32 49 46 45 40 37 34 30 26 24 19 14 8 5 3 1 1 358 354 351 349 345 345 344 343 339
327 318 74 83 83 122 147 232 132 341 163 125 100 46 104 126 100 107 102 146 133 66 31 37 44 41 39 36 31 25 20 16 15 12 9 4 2 1 359 359 356 356 350 345 344 342 339 338 335
38 10 29 76 99 351 130 202 186 164 67 72 115 89 67 48 119 122 149 158 138 102 53 40 37 34 32 29 25 20 19 16 14 14 8 3 1 360 2 359 355 355 349 345 343 340 338 336 333
41 53 66 76 43 172 303 264 201 137 121 76 157 177 156 109 107 126 160 168 133 108 60 35 38 29 25 23 20 17 13 11 12 13 9 3 359 352 0 358 355 347 348 346 343 339 335 334 332
51 90 73 143 184 240 243 327 106 134 160 143 75 138 146 120 148 175 170 166 124 108 73 49 35 29 17 15 18 26 25 21 24 25 14 15 11 16 8 4 353 350 350 348 342 341 341 337 331
102 77 144 152 183 218 214 48 112 187 177 148 141 122 98 180 185 162 189 142 98 92 79 55 36 24 13 20 8 25 8 28 43 28 24 25 26 23 16 13 5 1 355 352 351 353 348 344 343
95 91 116 146 185 224 224 120 158 196 223 77 51 186 205 185 166 166 168 107 105 82 68 54 40 25 10 25 29 50 46 58 47 38 35 33 25 20 15 13 2 360 353 352 348 349 345 341 339
69 66 148 187 164 212 210 165 350 61 97 50 27 102 168 135 141 159 168 132 100 65 59 60 43 26 6 31 27 36 53 53 47 38 33 28 17 5 12 5 3 360 353 352 348 346 344 340 335
71 99 204 185 51 114 133 144 51 34 179 262 33 32 127 144 166 182 186 171 147 137 100 76 51 27 14 19 15 22 36 34 48 36 34 23 25 9 14 5 4 360 355 352 347 342 340 336 319
29 132 147 58 44 11 354 339 318 201 260 218 203 192 176 178 188 197 202 170 169 143 69 65 66 53 30 18 7 15 17 23 27 30 27 31 23 5 358 352 351 344 350 342 340 333 331 323 317
80 42 43 22 26 19 347 309 306 201 233 175 217 173 175 185 195 188 162 164 156 155 132 72 49 35 22 13 11 357 12 11 5 356 15 34 12 3 353 347 339 341 338 334 333 323 316 316 306
70 59 42 42 15 321 338 269 246 258 234 166 138 157 187 188 183 164 162 147 152 144 134 125 76 40 20 23 0 0 351 354 332 345 360 23 7 352 335 335 331 328 324 332 326 321 321 317 313
63 94 133 322 330 306 332 274 33 258 160 182 178 188 187 186 175 158 169 160 161 142 147 138 111 71 38 19 357 341 318 327 359 345 338 335 331 325 324 319 315 313 315 318 311 307 314 312 310
148 78 12 11 1 314 301 288 224 243 161 196 203 203 204 206 176 188 176 168 161 166 156 144 137 102 62 10 353 354 7 5 1 335 323 315 310 310 317 312 309 300 304 307 307 314 309 311 309
26 44 15 8 345 334 10 270 250 327 172 217 218 213 212 203 184 189 171 161 161 147 160 141 121 102 66 41 20 9 8 2 330 335 331 320 326 336 313 302 298 288 289 303 286 302 303 305 305
10 20 342 313 53 301 344 272 263 202 207 238 227 229 221 211 205 190 163 168 162 163 156 157 116 123 65 42 35 357 3 347 337 327 326 339 352 331 329 320 313 311 305 307 287 298 288 298 298
298 335 301 251 327 326 257 263 280 261 244 246 252 249 225 214 214 175 180 165 151 160 153 134 133 131 87 63 4 350 343 334 331 336 341 350 338 343 335 323 313 311 306 305 302 292 298 289 293
225 243 252 260 43 328 239 285 295 314 260 277 269 272 249 222 197 161 171 161 156 170 164 160 147 130 94 40 342 316 316 304 331 308 343 331 334 341 331 329 323 320 322 316 306 307 305 301 298
222 267 296 287 315 6 336 301 282 304 43 33 10 342 240 144 147 147 171 186 189 179 190 149 132 115 68 79 352 335 312 314 307 351 329 332 338 334 335 326 328 326 321 321 319 318 313 304 308
38 276 337 261 327 232 318 293 316 318 92 65 39 30 27 181 177 182 194 203 194 198 170 128 112 70 47 29 3 356 322 341 330 337 335 340 334 332 332 329 328 323 321 317 325 321 311 311 305
335 142 258 293 19 280 19 277 306 324 105 48 34 33 21 31 178 204 211 207 193 167 96 94 67 51 46 30 34 29 5 341 329 331 326 326 330 333 325 322 322 320 325 322 321 324 315 308 300
245 299 303 52 86 15 335 77 269 344 257 177 60 59 28 30 49 78 62 70 72 78 58 49 65 51 38 36 33 22 2 324 327 333 332 335 331 323 319 335 339 336 334 319 312 315 320 315 308
320 115 53 61 98 23 280 87 283 245 235 204 174 77 31 33 47 61 66 64 58 59 71 58 59 45 38 35 27 21 358 344 339 338 333 330 325 327 339 336 336 327 323 330 325 318 314 314 308
29 43 345 356 9 232 281 23 246 252 260 229 182 167 81 57 55 61 69 72 71 61 46 56 46 38 29 27 20 4 4 347 342 339 334 329 329 332 332 331 334 331 323 317 315 316 320 316 308
22 111 142 265 277 281 17 236 258 210 24 67 137 150 134 83 77 85 84 105 95 76 57 47 38 29 25 12 10 357 356 351 337 332 326 327 327 327 322 335 324 321 322 322 317 310 309 314 314
319 46 149 96 54 34 271 286 289 183 252 187 178 194 209 187 145 138 141 110 111 82 60 47 23 25 19 16 357 347 350 342 332 329 326 330 322 321 332 321 323 321 323 322 317 309 312 307 302
94 140 28 12 339 300 285 277 246 258 234 219 209 223 228 198 182 170 136 133 103 77 50 41 22 12 6 3 348 343 336 335 330 327 328 326 319 323 318 321 321 321 320 319 319 313 302 301 296
48 14 43 133 147 204 288 266 219 230 213 202 218 224 225 214 205 184 148 136 110 78 42 24 14 1 354 349 334 336 334 333 327 325 325 316 319 317 317 317 320 319 318 319 314 307 302 303 296
333 211 162 130 268 237 161 266 245 241 244 194 217 237 230 204 209 193 191 163 87 32 14 13 355 348 342 332 331 332 330 326 322 318 317 316 313 314 314 316 317 315 313 315 309 309 298 294 301